Location: Melizzano
(41.1500°N, 14.5000°E)
Time: 23:16:29
(UTC+00:00)

Cosmos 1242 Rocket - Pass Details

Date: 11 May 2021
Orbit: 446 x 484 km, 81.2° (Epoch: 24 June)

Event Time Altitude Azimuth Distance (km) Brightness Sun altitude
Exits shadow 18:48:57 - 167° (SSE) 2,405 5.7 -7.3°
Reaches altitude 10° 18:50:55 10° 158° (SSE) 1,635 4.8 -7.7°
Maximum altitude 18:54:08 32° 94° (E) 827 3.3 -8.2°
Drops below altitude 10° 18:57:21 10° 30° (NNE) 1,628 5.3 -8.7°
Sets 18:59:33 0° 20° (NNE) 2,501 6.4 -9.0°
